• In Latvia
  • List of Countries
  • For 7 days
  • Water Temperature
  • Satellite Maps
  • Weather Map
  • Weather Widgets
  • user-avatar
    Login

    Hourly Weather Escaldes-Engordany

    Today, 20 August, Sunday

    Time Temperature Precipitation Wind Pressure Humidity
    00:00 +12°C° 0 mm 1 mps 644 mmHg 90%
    01:00 +12°C° 0 mm 1 mps 644 mmHg 90%
    02:00 +12°C° 0 mm 1 mps 644 mmHg 90%
    03:00 +10°C° 0 mm 2 mps 643 mmHg 90%
    04:00 +10°C° 0 mm 2 mps 644 mmHg 88%
    05:00 +10°C° 0 mm 2 mps 644 mmHg 86%
    06:00 +10°C° 0 mm 2 mps 644 mmHg 84%
    07:00 +14°C° 0 mm 2 mps 645 mmHg 73%
    08:00 +16°C° 0 mm 2 mps 646 mmHg 62%
    09:00 +18°C° 0 mm 2 mps 647 mmHg 50%
    10:00 +20°C° 0 mm 2 mps 647 mmHg 45%
    11:00 +21°C° 0 mm 2 mps 647 mmHg 40%
    12:00 +24°C° 0 mm 2 mps 647 mmHg 35%
    13:00 +24°C° 0 mm 2 mps 647 mmHg 35%
    14:00 +24°C° 0 mm 2 mps 647 mmHg 35%
    15:00 +24°C° 0 mm 2 mps 647 mmHg 35%
    16:00 +23°C° 0 mm 2 mps 646 mmHg 40%
    17:00 +20°C° 0 mm 2 mps 646 mmHg 46%
    18:00 +18°C° 0 mm 2 mps 645 mmHg 51%
    19:00 +17°C° 0 mm 2 mps 645 mmHg 55%
    20:00 +15°C° 0 mm 2 mps 644 mmHg 60%
    21:00 +13°C° 0 mm 2 mps 644 mmHg 64%
    22:00 +13°C° 0 mm 2 mps 644 mmHg 61%
    23:00 +13°C° 0 mm 1 mps 644 mmHg 59%

    Tomorrow, 21 August, Monday

    Time Temperature Precipitation Wind Pressure Humidity
    00:00 +12°C° 0 mm 1 mps 644 mmHg 57%
    01:00 +12°C° 0 mm 1 mps 644 mmHg 54%
    02:00 +12°C° 0 mm 1 mps 643 mmHg 51%
    03:00 +12°C° 0 mm 1 mps 643 mmHg 49%
    04:00 +12°C° 0 mm 1 mps 643 mmHg 48%
    05:00 +13°C° 0 mm 1 mps 643 mmHg 47%
    06:00 +13°C° 0 mm 1 mps 643 mmHg 46%
    07:00 +16°C° 0 mm 1 mps 644 mmHg 42%
    08:00 +20°C° 0 mm 1 mps 645 mmHg 37%
    09:00 +23°C° 0 mm 1 mps 647 mmHg 33%
    10:00 +24°C° 0 mm 1 mps 647 mmHg 31%
    11:00 +26°C° 0 mm 1 mps 647 mmHg 30%
    12:00 +27°C° 0 mm 1 mps 647 mmHg 28%
    13:00 +27°C° 0 mm 2 mps 647 mmHg 29%
    14:00 +27°C° 0 mm 2 mps 646 mmHg 30%
    15:00 +27°C° 0 mm 2 mps 646 mmHg 31%
    16:00 +25°C° 0 mm 2 mps 645 mmHg 39%
    17:00 +24°C° 0 mm 2 mps 645 mmHg 46%
    18:00 +21°C° 0 mm 2 mps 644 mmHg 53%
    19:00 +20°C° 0 mm 1 mps 644 mmHg 61%
    20:00 +18°C° 0 mm 1 mps 643 mmHg 68%
    21:00 +16°C° 0 mm 1 mps 643 mmHg 75%
    22:00 +16°C° 0 mm 1 mps 643 mmHg 77%
    23:00 +15°C° 0 mm 1 mps 643 mmHg 79%

    Day after tomorrow, 22 August, Tuesday

    Time Temperature Precipitation Wind Pressure Humidity
    00:00 +15°C° 0 mm 1 mps 642 mmHg 82%
    01:00 +15°C° 0 mm 1 mps 642 mmHg 82%
    02:00 +15°C° 0 mm 1 mps 642 mmHg 82%
    03:00 +15°C° 0 mm 1 mps 642 mmHg 82%
    04:00 +15°C° 0 mm 1 mps 642 mmHg 80%
    05:00 +15°C° 0 mm 1 mps 642 mmHg 78%
    06:00 +16°C° 0 mm 1 mps 642 mmHg 77%
    07:00 +20°C° 0 mm 1 mps 643 mmHg 66%
    08:00 +23°C° 0 mm 1 mps 644 mmHg 55%
    09:00 +25°C° 0 mm 2 mps 645 mmHg 44%
    10:00 +27°C° 0 mm 2 mps 645 mmHg 41%
    11:00 +28°C° 0 mm 2 mps 646 mmHg 38%
    12:00 +29°C° 0 mm 2 mps 646 mmHg 35%
    13:00 +28°C° 0.2 mm 2 mps 645 mmHg 38%
    14:00 +28°C° 0.2 mm 2 mps 645 mmHg 41%
    15:00 +27°C° 0.2 mm 2 mps 644 mmHg 44%
    16:00 +26°C° 0.3 mm 2 mps 644 mmHg 50%
    17:00 +24°C° 0.3 mm 1 mps 644 mmHg 56%
    18:00 +23°C° 0.3 mm 1 mps 643 mmHg 61%
    19:00 +21°C° 0.2 mm 1 mps 643 mmHg 67%
    20:00 +20°C° 0.2 mm 1 mps 643 mmHg 72%
    21:00 +18°C° 0.2 mm 1 mps 643 mmHg 78%
    22:00 +18°C° 0.1 mm 1 mps 643 mmHg 79%
    23:00 +16°C° 0.1 mm 1 mps 643 mmHg 80%

    23 August, Wednesday

    Time Temperature Precipitation Wind Pressure Humidity
    00:00 +15°C° 0.1 mm 0 mps 643 mmHg 81%
    01:00 +14°C° 0.1 mm 0 mps 642 mmHg 81%
    02:00 +14°C° 0.1 mm 0 mps 642 mmHg 82%
    03:00 +14°C° 0.1 mm 0 mps 642 mmHg 82%
    04:00 +14°C° 0.2 mm 0 mps 642 mmHg 81%
    05:00 +15°C° 0.2 mm 1 mps 642 mmHg 81%
    06:00 +16°C° 0.2 mm 1 mps 643 mmHg 80%
    07:00 +19°C° 0.2 mm 1 mps 643 mmHg 72%
    08:00 +20°C° 0.2 mm 2 mps 644 mmHg 64%
    09:00 +23°C° 0.2 mm 2 mps 645 mmHg 56%
    10:00 +24°C° 0.3 mm 2 mps 645 mmHg 52%
    11:00 +25°C° 0.3 mm 2 mps 645 mmHg 48%
    12:00 +26°C° 0.3 mm 3 mps 646 mmHg 44%
    13:00 +26°C° 0.2 mm 3 mps 645 mmHg 44%
    14:00 +26°C° 0.2 mm 3 mps 645 mmHg 44%
    15:00 +26°C° 0.2 mm 3 mps 645 mmHg 44%
    16:00 +25°C° 0.2 mm 2 mps 644 mmHg 50%
    17:00 +24°C° 0.2 mm 2 mps 644 mmHg 56%
    18:00 +21°C° 0.2 mm 2 mps 643 mmHg 62%
    19:00 +20°C° 0.2 mm 1 mps 643 mmHg 68%
    20:00 +19°C° 0.2 mm 1 mps 643 mmHg 73%
    21:00 +16°C° 0.2 mm 1 mps 643 mmHg 78%
    22:00 +16°C° 0 mm 1 mps 642 mmHg 78%
    23:00 +16°C° 0 mm 1 mps 642 mmHg 78%

    24 August, Thursday

    Time Temperature Precipitation Wind Pressure Humidity
    00:00 +15°C° 0 mm 1 mps 642 mmHg 78%
    01:00 +15°C° 0 mm 1 mps 642 mmHg 77%
    02:00 +15°C° 0 mm 1 mps 642 mmHg 76%
    03:00 +14°C° 0 mm 1 mps 642 mmHg 75%
    04:00 +15°C° 0 mm 1 mps 642 mmHg 74%
    05:00 +15°C° 0 mm 1 mps 642 mmHg 72%
    06:00 +15°C° 0 mm 1 mps 642 mmHg 71%
    07:00 +18°C° 0 mm 1 mps 643 mmHg 62%
    08:00 +20°C° 0 mm 2 mps 644 mmHg 54%
    09:00 +24°C° 0 mm 2 mps 645 mmHg 45%
    10:00 +25°C° 0 mm 3 mps 645 mmHg 42%
    11:00 +26°C° 0 mm 3 mps 645 mmHg 39%
    12:00 +27°C° 0 mm 3 mps 645 mmHg 36%
    13:00 +27°C° 0 mm 4 mps 645 mmHg 36%
    14:00 +27°C° 0 mm 4 mps 645 mmHg 36%
    15:00 +27°C° 0 mm 4 mps 645 mmHg 36%
    16:00 +26°C° 0 mm 3 mps 644 mmHg 42%
    17:00 +24°C° 0 mm 3 mps 644 mmHg 48%
    18:00 +21°C° 0 mm 2 mps 643 mmHg 53%
    19:00 +20°C° 0 mm 2 mps 643 mmHg 58%
    20:00 +18°C° 0 mm 2 mps 642 mmHg 63%
    21:00 +16°C° 0 mm 2 mps 642 mmHg 67%
    22:00 +16°C° 0 mm 2 mps 642 mmHg 65%
    23:00 +16°C° 0 mm 1 mps 642 mmHg 63%

    25 August, Friday

    Time Temperature Precipitation Wind Pressure Humidity
    00:00 +15°C° 0 mm 1 mps 642 mmHg 61%
    01:00 +15°C° 0 mm 1 mps 642 mmHg 60%
    02:00 +15°C° 0 mm 1 mps 641 mmHg 58%
    03:00 +15°C° 0 mm 2 mps 641 mmHg 56%
    04:00 +15°C° 0 mm 2 mps 641 mmHg 57%
    05:00 +15°C° 0 mm 2 mps 641 mmHg 58%
    06:00 +15°C° 0 mm 2 mps 642 mmHg 58%
    07:00 +18°C° 0 mm 2 mps 643 mmHg 51%
    08:00 +20°C° 0 mm 2 mps 644 mmHg 43%
    09:00 +24°C° 0 mm 3 mps 645 mmHg 36%
    10:00 +25°C° 0 mm 3 mps 645 mmHg 33%
    11:00 +26°C° 0 mm 3 mps 645 mmHg 31%
    12:00 +27°C° 0 mm 4 mps 645 mmHg 28%
    13:00 +27°C° 0 mm 4 mps 645 mmHg 29%
    14:00 +28°C° 0 mm 4 mps 645 mmHg 29%
    15:00 +28°C° 0 mm 4 mps 644 mmHg 30%
    16:00 +26°C° 0 mm 3 mps 644 mmHg 36%
    17:00 +24°C° 0 mm 3 mps 643 mmHg 42%
    18:00 +21°C° 0 mm 2 mps 643 mmHg 49%
    19:00 +19°C° 0 mm 2 mps 642 mmHg 53%
    20:00 +18°C° 0 mm 2 mps 642 mmHg 57%
    21:00 +16°C° 0 mm 2 mps 642 mmHg 61%
    22:00 +16°C° 0 mm 2 mps 642 mmHg 57%
    23:00 +15°C° 0 mm 2 mps 641 mmHg 53%
    Show more